www.pogodaiklimat.ru

Погода и климат >> Архив погоды >> Россия >> Калмыкия >> Комсомольский


ПОГОДА в Комсомольском

  • Прогноз погоды в Комсомольском
  • Монитор погоды в Комсомольском
  • Климат города

АРХИВ ПОГОДЫ в Комсомольском

Время (UTC), дата Ветер
(напр.,м/с)
 
Видим.   Явления Облачность Т
(С)
Тd
(С)
f
(%)
Тe
(С)
Тes
(С)
Комфортность P
(гПа)
Po
(гПа)
Тmin
(С)
Tmax
(С)
R
(мм)
S
(см)
03 16.03 штиль 0 20 км 10/10 600 м
[Sc]
+2.0 -0.9 81 +1 +1 1013.6 1014.0 +1.9
06 16.03 З 1 20 км 10/10 600 м
[Sc]
+4.9 +1.4 78 +4 +4 1013.5 1013.9
09 16.03 ЮЗ 1 20 км 5/0
[Ac trans]
+10.2 +0.9 52 +10 +19 1012.8 1013.2
12 16.03 ЮЗ 2 20 км 8/6
[Sc Ac trans Ci fib]
+11.2 0.0 46 +10 +12 1012.0 1012.3
15 16.03 З 2 20 км 5/3 600 м
[Sc Ac trans Ci fib]
+8.9 +1.9 61 +7 +7 1012.4 1012.8 +12.0
18 16.03 З 2 20 км 4/0
[Ci fib]
+5.6 +3.4 86 +3 +3 1012.8 1013.2
21 16.03 СЗ 2 20 км 10/10 600 м
[Sc]
+4.5 +2.9 89 +2 +2 1012.2 1012.6
00 17.03 З 2 4000 м дымка 8/0
[Ac trans]
+2.1 +0.8 91 -1 -1 1012.7 1013.1
03 17.03 С 1 20 км 10/10 570 м
[Sc]
+2.0 +0.5 90 0 0 1014.3 1014.7 +1.7
06 17.03 СЗ 2 20 км 9/4 600 м
[Sc Ac trans Ci fib]
+7.6 +4.2 79 +6 +8 1014.9 1015.3
09 17.03 СЗ 3 20 км 8/8 600 м
[Cu hum]
+11.3 +4.0 61 +10 +12 1015.0 1015.4
12 17.03 С 3 20 км 8/6 1000 м
[Cu hum Ac trans]
+13.2 +2.9 50 +12 +13 1014.7 1015.1
15 17.03 С 2 20 км 9/9 600 м
[Sc Ac trans]
+10.8 +2.3 56 +10 +10 1015.5 1015.9 +13.6
18 17.03 В 1 20 км ясно +7.1 +2.1 70 +6 +6 1015.6 1016.0
21 17.03 В 2 20 км ясно +5.4 +1.8 78 +3 +3 1015.0 1015.4
00 18.03 В 2 20 км ясно +4.1 +1.5 83 +1 +1 1014.6 1015.0
03 18.03 В 2 20 км 10/10 630 м
[Sc]
+1.7 +0.3 90 -2 -2 1014.7 1015.1 +1.7
06 18.03 В 3 20 км ясно +9.7 +3.2 64 +8 +12 1014.8 1015.1
09 18.03 В 5 20 км 5/0
[Ac trans Ci fib]
+12.4 +2.1 49 +10 +15 1013.6 1014.0
12 18.03 В 5
{11}
20 км 8/5 600 м
[Sc Ac trans Ci fib]
+11.3 +1.1 49 +9 +10 1012.1 1012.5
15 18.03 20 км н/о +7.0 +2.6 74 +4 +4 1013.3 1013.7 +12.8
18 18.03 В 4 20 км 10/10 540 м
[Sc]
+4.7 +2.3 84 +1 +1 1014.0 1014.4
21 18.03 В 2 20 км 10/10 540 м
[Sc]
+4.7 +2.4 85 +2 +2 1013.9 1014.3
00 19.03 В 2 20 км 9/9 600 м
[Sc Ac trans]
+4.4 +2.5 87 +2 +2 1013.2 1013.6
03 19.03 штиль 0 20 км 10/10 570 м
[Sc]
+4.2 +2.7 90 +3 +3 1014.2 1014.6 +3.6
06 19.03 ЮВ 2 20 км 10/10 570 м
[Sc]
+4.9 +2.8 86 +2 +2 1014.4 1014.8
09 19.03 ЮВ 2 20 км 10/10 600 м
[Sc]
+6.2 +3.0 80 +4 +4 1013.7 1014.1
12 19.03 В 2 20 км 8/8 600 м
[Sc Ac trans Ci fib]
+8.3 +3.4 71 +7 +8 1011.8 1012.2
15 19.03 В 2 20 км 10/10 570 м
[Sc]
+8.8 +3.7 70 +7 +7 1011.8 1012.2 +9.6
18 19.03 ЮВ 2 20 км ясно +4.4 +2.8 89 +2 +2 1011.4 1011.8
21 19.03 ЮВ 3 500 м туман ?/? +4.1 +4.1 100 0 0 1009.8 1010.2
00 20.03 В 4 1000 м в посл. час туман 10/10 330 м
[St]
+5.0 +4.7 98 +1 +1 1008.0 1008.4
03 20.03 В 4 1000 м дымка 10/10 540 м
[Sc]
+4.5 +4.3 99 -0 -0 1007.1 1007.5 +3.9
06 20.03 В 4 4000 м дымка {туман} 10/10 540 м
[Sc]
+4.9 +3.9 93 +1 +1 1006.6 1007.0 +3.7
09 20.03 В 4 20 км 10/10 570 м
[Sc]
+6.7 +4.3 85 +3 +3 1005.7 1006.1
12 20.03 В 2 20 км 8/8 600 м
[Sc Ac trans]
+8.7 +4.7 76 +7 +8 1005.4 1005.8
15 20.03 ЮЗ 2 20 км 8/8 300 м
[Sc Ac trans]
+7.4 +4.8 84 +5 +5 1006.8 1007.2 +9.5
18 20.03 З 3 20 км 10/10 570 м
[Sc]
+7.4 +5.2 86 +4 +4 1008.0 1008.4
21 20.03 СЗ 5
{10}
20 км 10/10 600 м
[Sc]
+7.6 +4.4 80 +4 +4 1007.7 1008.1
00 21.03 СЗ 5-11
{12}
20 км 8/8 600 м
[Sc Ac trans]
+6.7 +4.5 86 +3 +3 1008.3 1008.7
03 21.03 СЗ 6-12
{14}
20 км 10/10 570 м
[Sc]
+5.8 +2.8 81 +1 +1 1009.2 1009.6 +5.8
06 21.03 СЗ 5-11
{14}
20 км 10/10 570 м
[Sc]
+6.7 -0.1 62 +3 +3 1009.9 1010.3 +5.5
09 21.03 СЗ 7-14
{14}
10 км пыльный позёмок 10/10 570 м
[Sc]
+7.1 +1.2 66 +3 +3 1010.2 1010.6
12 21.03 СЗ 6-11
{13}
10 км пыльный позёмок 10/10 570 м
[Sc]
+7.6 +1.9 67 +4 +4 1010.2 1010.6
15 21.03 СЗ 5
{13}
20 км 10/10 600 м
[Sc Ac trans]
+7.6 +1.0 63 +4 +4 1010.3 1010.7 +7.6
18 21.03 З 4 20 км 10/10 540 м
[Sc]
+5.9 +0.7 69 +2 +2 1010.7 1011.1
21 21.03 З 5
{11}
20 км 10/10 600 м
[Sc Ac trans]
+5.7 +1.4 74 +1 +1 1010.1 1010.5
00 22.03 З 6-12
{13}
10 км слабый ливневой дождь 10/10 360 м
[Cb cap]
+4.5 +3.2 91 -1 -1 1009.9 1010.3
03 22.03 СЗ 2
{15}
2000 м слабый ливневой снег 10/10 300 м
[Cb cap]
+0.1 -0.1 99 -4 -4 1011.1 1011.5 +0.1 6 1
06 22.03 З 3 2000 м слабый ливневой снег 10/10 300 м
[Cb cap]
+0.5 +0.3 99 -4 -4 1012.2 1012.6 +0.1
09 22.03 СЗ 3 4000 м слабый ливневой снег 10/10 330 м
[Cb cap]
+0.6 0.0 96 -4 -4 1013.0 1013.4
12 22.03 СЗ 3 4000 м дымка {ливн. осадки} 10/10 330 м
[Cb cap]
+0.3 -0.4 95 -5 -5 1014.1 1014.5
15 22.03 СЗ 3 4000 м слабая морось 10/10 360 м
[St]
-0.1 -0.4 98 -5 -5 1016.1 1016.5 +1.0 6
18 22.03 СЗ 3 4000 м слабая переохл. морось (гололёд) [диам. гололёда 0 мм] 10/10 330 м
[St]
-0.1 -0.4 98 -5 -5 1017.7 1018.1
21 22.03 СЗ 1 4000 м слабая переохл. морось (гололёд) 10/10 330 м
[St]
-0.2 -0.5 98 -2 -2 1018.5 1018.9

 

Местоположение метеостанции Комсомольский (Калмыкия, Россия): широта 45.35 долгота 46.03 высота над уровнем моря -2 м.

В архиве по умолчанию представлена погода в Комсомольском за последнюю неделю. Архивные данные за месяц целиком и за предыдущие месяцы, начиная с января 2011 года, Вы можете получить, выбрав интересующий диапазон дат из раскрывающегося списка и нажав кнопку "Ввод!".

Внимание! Время в таблицах - всемирное. Для получения местного времени необходимо прибавить поправку, которая в Комсомольском равна 3 ч.

Смотрите также архив погоды в соседних городах и на ближайших метеорологических станциях:

Погода в Артезиане (Калмыкия, Россия) (70 км)
Погода в Южно-Сухокумске (Дагестан, Россия) (83 км)
Погода в Лагани (Калмыкия, Россия) (103 км)
Погода в Лимане (Астраханская область, Россия) (105 км)
Погода в Яшкуле (Калмыкия, Россия) (106 км)
Погода в Кочубее (Дагестан, Россия) (113 км)
Погода в Утте (Калмыкия, Россия) (113 км)
Погода в Ики-Буруле (Калмыкия, Россия) (120 км)
Погода в Терекли-Мектебе (Дагестан, Россия) (136 км)
Погода в Арзгире (Ставропольский край, Россия) (143 км)

Пояснения к столбцам:

Ветер - указаны скорость ветра в м/с - средняя за 10 мин, порывы в срок и между сроками (в фигурных скобках) и направление, откуда дует ветер: С - северный, СВ - северо-восточный, В - восточный, ЮВ - юго-восточный, Ю - южный, ЮЗ - юго-западный, З - западный, СЗ - северо-западный.
Видимость - горизонтальная дальность видимости в метрах или километрах. При видимости от 1 до 10 км при отсутствии осадков обычно наблюдается дымка, при ухудшении видимости до 1 км и менее - туман. В сухую погоду видимость может ухудшаться дымом, пылью или мглою.
Явления - указаны атмосферные явления, наблюдавшиеся в срок или в последний час перед сроком; фигурными скобками обозначены явления, наблюдавшиеся между сроками (за 1-3 часа до срока); квадратными скобками обозначены град или гололедные отложения с указанием их диаметра в мм.
Облачность - указаны через наклонную черту общая и нижняя облачность в баллах и высота нижней границы облаков в метрах; квадратными скобками обозначены формы облаков: Ci - перистые, Cs - перисто-слоистые, Cc - перисто-кучевые, Ac - высококучевые, As - высокослоистые, Sc - слоисто-кучевые, Ns - слоисто-дождевые, Cu - кучевые, Cb - кучево-дождевые. Подробнее классификацию облаков см. в Атласе облаков (PDF).
T - Температура воздуха - температура, измеренная на высоте 2 м над землей.
Td - Температура точки росы - температура, при понижении до которой содержащийся в воздухе водяной пар достигнет насыщения.
f - Относительная влажность воздуха - влажноcть воздуха, измеренная на высоте 2 м над землей.
Te - Эффективная температура - температура, которую ощущает одетый по сезону человек в тени. Характеристика душности погоды. При расчете учитывается влияние влажности воздуха и скорости ветра на теплоощущения человека.
Tes - Эффективная температура на солнце - температура, которую ощущает человек, с поправкой на солнечный нагрев. Характеристика знойности погоды. Зависит от высоты солнца над горизонтом, облачности и скорости ветра. Ночью, в пасмурную погоду, а также при ветре 12 м/с и более поправка равна нулю.
P - Атмосферное давление - приведенное к уровню моря атмосферное давление.
Po - Атмосферное давление - измеренное на уровне метеостанции атмосферное давление.
Tmin - Минимальная температура - минимум температуры воздуха на высоте 2 м над землей.
Tmax - Максимальная температура - максимум температуры воздуха на высоте 2 м над землей.
R - Количество осадков - Количество выпавших осадков, мм. При наведении курсора мыши на число - период времени, за который выпало указанное количество осадков.
S - Снежный покров - Высота снежного покрова, см. При наведении курсора мыши на число - состояние снежного покрова и степень покрытия местности в баллах.